Вернуться в каталог

COSMOS 2251 DEB

АктивенLEO
NORAD 33826·DEBRIS·🇷🇺 Russia

Запущен Jun 16, 1993 с Plesetsk Cosmodrome

Loading…

Ближайшие Пролёты (ближайшие 24 часа)

TLE

СвежийSource: Space-Track

Эпоха: Sep 14, 2026, 11:19 UTC

1 33826U 93036BT  26257.47209593  .00004521  00000-0  10110-2 0  9991
2 33826  74.0618 250.0123 0083512 227.0503 299.8653 14.54860788917753

Отслеживайте COSMOS 2251 DEB в реальном времени с AllMySat

Download on the App Store